Dewpoint
13 13 14 15 15 14 13 13 15 15 14 13 13 13 13 13 12 12 12 12 12 12 12 12 12 13 13 14 15 15 14 14 14 15 16 16 15 15 15 15 15 15 15 16 16 16 16 16 16 15 15 14 15 16 17 18 19 20 21 21 22 22 22 22 23 23 23 23 23
13 13 15 17 16 15 13 13 14 14 14 13 13 13 13 13 12 12 12 12 12 12 12 12 13 13 13 14 15 14 14 13 13 14 14 14 14 14 14 14 15 15 15 15 16 16 17 17 17 16 16 15 15 15 17 18 19 20 21 22 22 22 23 23 23 23 23 23 24
13 13 13 13 13 13 13 13 13 13 13 13 13 13 13 13 12 12 12 12 12 12 12 12 13 13 14 14 14 13 13 13 13 14 14 14 14 14 14 14 14 14 14 14 14 15 16 18 18 18 17 15 15 15 16 18 19 21 21 22 22 22 22 22 22 22 23 23 23
13 13 13 13 13 13 13 13 13 13 13 13 13 13 13 13 13 12 12 13 12 12 12 13 13 14 14 14 13 13 14 15 14 14 13 13 13 13 13 13 13 13 13 13 14 15 16 18 18 17 16 15 15 15 16 18 19 20 21 21 21 21 21 21 22 22 22 22 23
13 13 13 13 13 13 13 13 13 13 13 13 13 13 13 13 13 13 13 13 13 13 13 14 14 14 14 14 14 14 14 14 16 15 13 13 13 12 12 13 13 13 13 13 13 14 15 16 17 16 16 15 15 16 17 18 19 19 19 19 19 19 20 20 20 21 22 22 23
13 13 13 13 13 13 13 13 13 13 13 13 13 13 13 13 13 13 13 13 13 14 15 16 16 16 15 14 14 13 13 13 13 13 12 12 12 12 12 12 12 12 12 13 13 14 14 15 15 15 15 14 16 18 18 18 18 18 18 18 18 18 18 19 20 21 22 22 23
14 13 13 13 13 13 13 13 13 13 14 14 14 14 14 14 14 14 14 14 15 15 16 17 16 15 14 14 13 13 13 13 13 12 12 11 12 12 12 12 12 12 12 13 13 14 14 14 14 14 15 15 15 16 18 18 18 18 17 17 17 18 19 20 21 22 22 23 23
13 14 14 14 13 13 13 14 14 14 14 14 14 14 14 14 15 15 15 15 15 15 15 15 14 13 13 13 13 12 12 12 12 12 12 12 12 12 12 12 12 12 12 13 13 13 13 13 13 14 14 14 14 15 16 17 18 18 18 18 18 18 20 21 22 23 23 23 23
13 13 13 14 14 14 14 14 14 15 15 15 15 15 15 16 16 15 15 15 16 15 14 13 13 13 12 12 12 12 12 12 12 12 12 12 13 13 13 13 13 13 13 13 13 13 13 13 13 13 13 14 15 15 16 17 18 18 18 18 18 18 19 20 22 22 22 23 23
13 13 13 14 14 15 15 15 15 15 15 15 15 15 16 18 17 16 15 16 15 14 13 13 12 12 12 12 12 13 13 13 13 13 13 13 14 14 14 14 14 13 13 13 13 13 13 13 13 13 13 14 15 15 16 17 17 18 18 18 18 18 19 19 20 21 22 23 23
13 13 14 14 14 15 16 15 15 15 15 14 14 15 15 17 16 15 15 15 14 13 12 12 12 12 12 12 13 13 13 13 13 13 13 14 14 14 14 14 14 14 14 13 13 13 13 13 13 13 14 14 15 16 17 17 17 18 18 18 18 19 19 19 19 21 22 23 24
13 14 14 14 14 14 14 14 14 14 13 13 13 14 14 14 14 14 14 13 12 12 11 12 12 13 13 13 13 13 13 13 13 13 13 14 14 14 15 15 15 15 14 14 14 13 13 14 14 14 14 15 16 17 17 17 17 18 18 18 18 19 19 19 20 21 22 23 24
14 14 14 14 14 13 13 13 13 12 12 13 13 13 13 13 13 13 13 12 11 11 11 13 13 13 13 13 13 13 13 13 13 13 14 14 14 15 15 15 15 15 15 14 14 14 14 14 14 15 15 16 16 17 17 18 18 18 17 18 18 19 20 21 22 22 23 24 26
13 13 13 13 13 13 12 12 12 12 12 12 12 13 12 12 12 12 12 11 11 11 12 12 13 13 13 13 13 13 13 13 13 13 14 14 14 15 15 16 16 16 16 15 15 15 15 15 16 16 16 16 17 17 17 18 18 18 17 17 18 19 20 21 22 23 24 26 27
13 13 13 13 12 12 12 12 12 12 11 11 12 12 12 11 12 12 12 11 11 11 12 12 12 13 13 13 13 13 13 13 13 14 14 14 14 15 16 16 16 16 16 16 16 16 16 17 17 17 17 17 17 17 18 18 18 18 18 19 19 20 21 22 22 23 25 28 29
12 12 12 12 12 12 12 12 12 12 11 11 11 11 11 11 11 12 12 12 12 12 12 12 12 13 13 14 14 14 14 14 14 14 14 15 15 16 16 17 17 17 17 17 17 17 17 18 18 18 18 18 18 18 18 18 18 19 20 20 21 21 22 22 23 24 26 28 28
11 12 12 12 12 12 13 13 12 12 12 12 12 12 11 11 11 12 13 13 12 12 12 12 13 13 13 14 14 14 14 15 15 15 15 16 16 17 17 17 18 18 18 18 18 18 18 18 18 19 19 18 18 18 18 19 19 20 21 21 22 22 22 23 24 25 27 27 27
11 12 12 12 12 13 13 13 13 13 12 12 12 12 12 11 11 12 12 13 13 13 13 13 13 13 13 13 14 15 16 17 17 17 17 17 18 18 18 18 19 19 19 19 19 19 19 19 19 19 19 19 19 19 19 20 20 21 22 22 22 22 23 24 25 26 26 26 27
11 12 12 12 12 13 13 14 14 13 13 13 12 12 12 12 11 11 12 12 13 13 13 13 13 13 13 13 13 15 16 18 17 17 18 18 18 19 19 20 20 20 20 20 20 20 20 19 19 19 19 19 20 20 20 21 21 22 22 23 23 24 25 26 26 26 26 26 26
11 12 12 12 12 13 14 14 14 14 13 13 13 12 12 12 12 12 13 13 13 13 13 13 13 13 13 13 13 15 16 17 17 18 18 18 19 19 20 20 21 21 21 21 21 20 20 20 19 19 20 20 21 21 22 22 22 23 24 24 25 26 26 27 26 26 26 26 27
11 12 12 12 13 13 14 14 15 14 14 14 13 13 12 12 12 13 13 13 13 13 13 13 13 13 14 14 15 15 16 17 18 18 18 18 19 20 20 21 21 21 21 21 21 21 20 20 20 21 21 22 23 23 24 24 25 25 26 27 27 27 27 27 27 27 28 29 30
11 12 12 12 13 14 15 15 15 15 14 14 13 13 12 12 13 13 13 13 14 14 14 14 14 14 15 15 16 16 17 17 18 18 18 18 19 20 21 21 21 22 22 22 22 21 21 21 22 23 24 25 25 26 26 27 27 26 26 26 27 27 27 28 29 30 30 31 30
11 12 12 13 14 15 16 15 15 15 14 13 13 13 13 12 13 13 13 14 15 14 14 14 14 15 15 16 16 16 17 17 17 17 18 18 18 19 20 21 21 22 22 22 23 23 23 24 24 25 26 26 26 26 26 26 26 26 26 26 27 28 28 29 29 29 29 29 29
11 12 13 13 14 15 15 15 15 15 14 13 13 13 13 13 13 14 14 14 14 14 15 15 15 15 16 16 16 16 16 16 16 17 17 18 18 19 20 21 21 22 23 25 27 28 28 27 26 26 25 25 25 25 25 25 25 25 25 26 27 27 28 28 28 28 28 27 28
11 12 13 14 15 15 16 16 15 14 13 13 13 13 13 13 13 13 14 14 14 14 14 15 15 15 15 15 15 15 15 15 16 16 17 18 18 19 19 20 20 22 26 30 33 34 33 30 28 27 26 25 25 25 25 25 25 25 25 25 25 26 27 27 27 27 27 27 27
11 11 13 15 15 16 16 16 15 14 13 13 12 12 13 13 13 13 13 13 13 13 14 15 15 16 16 14 14 14 13 13 14 16 17 18 18 18 19 19 20 23 27 31 33 34 35 34 32 29 27 25 25 25 24 24 24 24 24 24 24 24 25 26 27 27 27 27 26
11 12 13 15 16 16 16 16 15 13 13 12 12 12 12 12 12 12 12 12 12 13 13 14 14 16 17 14 14 13 13 12 13 15 16 17 18 18 18 19 21 25 28 29 30 32 33 34 33 31 29 26 24 24 23 23 23 23 23 23 23 24 24 25 26 27 27 27 26
11 13 14 16 16 16 16 15 14 13 12 11 11 11 11 12 12 12 11 11 11 12 13 13 14 15 15 14 13 13 13 13 13 13 15 16 16 16 17 19 22 25 27 27 27 29 31 33 33 32 30 27 24 23 23 22 22 22 23 23 23 23 23 24 26 27 27 27 27
11 13 15 16 16 16 16 15 14 13 12 11 10 10 10 11 11 11 11 11 12 13 13 14 14 15 14 14 13 13 13 13 13 14 14 15 15 15 16 18 21 25 27 26 27 27 29 31 32 32 31 29 25 22 22 22 22 22 22 22 22 22 22 24 25 27 27 27 27
13 14 16 17 16 16 15 14 13 12 11 10 10 10 10 10 11 11 11 12 12 13 14 14 14 15 15 14 13 13 13 13 13 14 15 15 16 16 16 18 21 25 28 26 26 26 27 28 30 31 31 29 25 23 22 22 22 21 21 21 21 21 22 22 23 25 26 27 27
13 15 16 17 16 15 14 14 13 11 10 10 10 10 10 11 12 12 12 12 13 14 15 14 15 15 15 14 13 13 12 13 13 14 15 15 16 16 16 16 19 25 29 27 26 25 26 26 27 29 29 29 25 23 21 22 21 20 20 21 21 21 21 21 21 22 24 26 25
14 16 17 17 16 15 14 13 12 11 10 10 10 10 11 11 12 12 13 13 13 13 13 14 15 15 15 14 13 13 13 13 13 14 15 15 15 15 15 16 17 24 31 29 26 25 24 24 25 26 27 27 24 22 20 20 20 19 19 20 20 20 20 20 20 21 23 27 25
15 16 16 17 16 15 14 13 11 10 10 10 10 11 11 12 12 13 13 14 14 13 13 13 15 15 15 14 13 13 13 13 14 15 16 16 15 15 15 15 16 23 31 31 27 25 24 23 22 23 23 24 21 19 18 18 18 18 18 19 19 20 20 19 19 20 22 26 26
15 16 16 16 16 15 13 13 11 10 10 10 11 11 12 12 13 13 14 16 15 14 13 13 15 15 15 14 13 13 13 14 13 13 14 14 15 15 15 14 15 22 31 33 29 26 25 23 22 22 21 21 18 16 15 15 16 16 17 17 18 18 19 19 19 20 21 24 27
15 15 15 16 15 14 13 12 11 10 11 11 11 12 12 13 13 13 14 17 16 14 13 14 16 16 15 14 13 13 14 13 13 13 14 14 15 15 15 14 15 21 28 34 31 28 26 24 23 22 20 18 14 13 13 13 13 14 15 16 17 18 18 19 19 19 20 22 26
14 14 15 16 15 14 13 12 11 11 11 11 12 12 12 13 13 14 15 18 16 14 13 14 16 16 16 15 14 14 14 13 13 13 14 15 15 14 14 14 14 19 26 32 32 30 27 25 24 22 19 14 11 11 11 12 13 13 14 14 15 16 17 18 18 18 19 21 24
13 14 14 15 15 14 13 12 12 11 11 12 12 12 13 13 13 14 16 18 15 14 13 14 16 16 16 15 14 13 13 13 13 14 15 15 15 15 14 14 14 18 23 29 31 31 29 26 25 22 18 12 9 9 9 10 12 13 13 13 14 15 16 17 17 18 19 20 22
13 13 14 15 14 14 13 12 12 12 12 12 12 13 13 13 13 14 16 18 15 14 14 14 15 15 16 16 15 14 13 13 14 15 15 14 15 15 15 14 14 17 21 26 30 31 31 28 26 23 19 12 9 7 8 9 10 12 13 13 13 14 15 16 16 17 18 19 23
12 13 13 14 14 13 13 12 12 12 12 13 13 13 13 13 14 15 16 17 16 14 14 14 15 15 16 18 16 14 13 13 14 15 15 14 15 17 17 14 14 16 20 25 27 29 31 30 27 24 21 14 9 8 7 7 9 11 12 12 13 13 13 14 15 16 16 18 22
12 13 13 13 13 13 13 12 12 12 13 13 13 13 13 14 14 15 16 16 15 15 15 15 14 15 16 18 16 14 13 13 13 14 15 16 16 18 19 15 14 15 19 23 25 27 29 30 28 26 22 15 11 9 8 7 9 10 12 12 12 13 13 13 13 14 15 16 18
12 13 13 13 13 13 13 12 12 12 13 13 13 13 14 15 14 14 14 15 15 15 15 15 15 15 16 17 15 14 13 13 13 14 15 16 16 18 18 14 14 15 18 21 24 25 27 29 29 27 23 18 13 10 9 8 9 10 11 12 12 12 12 12 12 13 13 14 14